Chubbuck, ID

7:46 AM MST on February 06, 2016 (GMT -0700)
Pocatello Regional

Weather History for KPIH - January, 2014

Change the Weather History Date:

Monday, January 27, 2014

  Actual Average Record
Temperature  
Mean Temperature 24 °F 25 °F  
Max Temperature 35 °F 33 °F 53 °F (2003)
Min Temperature 13 °F 17 °F -10 °F (2009)
Degree Days  
Heating Degree Days 41 40  
Month to date heating degree days 975 1100  
Since 1 July heating degree days 3975 4085  
Cooling Degree Days 0 0  
Month to date cooling degree days 0 0  
Year to date cooling degree days 0 0  
Moisture  
Dew Point 15 °F    
Average Humidity 74    
Maximum Humidity 96    
Minimum Humidity 52    
Precipitation  
Precipitation 0.00 in 0.03 in 0.93 in (1970)
Month to date precipitation 0.46 0.88  
Year to date precipitation 0.46 0.88  
Snow  
Snow 0.00 in - - ()
Month to date snowfall 2.3  
Since 1 July snowfall 11.9  
Snow Depth 0.00 in    
Sea Level Pressure  
Sea Level Pressure 30.22 in    
Wind  
Wind Speed 4 mph (SW)    
Max Wind Speed 9 mph    
Max Gust Speed 11 mph    
Visibility 5 miles    
Events Fog    
T = Trace of Precipitation, MM = Missing Value Source: NWS Daily Summary

Daily Weather History Graph

Daily Weather History Graph

Search for Another Location

Airport or City:

Trip Planner

Search our weather history database for the weather conditions in past years. The results will help you decide how hot, cold, wet, or windy it might be!

Date:

Astronomy

Jan. 27, 2014 Rise Set
Actual Time 7:50 AM MST 5:36 PM MST
Civil Twilight 7:19 AM MST 6:07 PM MST
Nautical Twilight 6:45 AM MST 6:41 PM MST
Astronomical Twilight 6:11 AM MST 7:14 PM MST
Moon 4:36 AM MST (1/27) 2:25 PM MST (1/27)
Length of Visible Light 10h 47m
Length of Day
9h 46m
Waning Crescent, 14% of the Moon is Illuminated
Jan 27
Waning Crescent
Jan 30
New
Feb 6
First Quarter
Feb 14
Full
Feb 22
Last Quarter

Hourly Weather History & Observations

Time (MST) Temp. Windchill Dew Point Humidity Pressure Visibility Wind Dir Wind Speed Gust Speed Precip Events Conditions
12:53 AM 19.0 °F 12.3 °F 16.0 °F 88% 30.23 in 7.0 mi NNE 4.6 mph - N/A   Clear
1:26 AM 18.0 °F 12.7 °F 15.1 °F 88% 30.10 in 7.0 mi NNE 3.5 mph - N/A   Partly Cloudy
1:48 AM 17.6 °F - 15.8 °F 93% 30.10 in 8.0 mi Calm Calm - N/A   Mostly Cloudy
1:53 AM 18.0 °F - 15.1 °F 88% 30.22 in 8.0 mi Calm Calm - N/A   Mostly Cloudy
2:28 AM 18.0 °F 12.7 °F 15.1 °F 88% 30.09 in 8.0 mi ESE 3.5 mph - N/A   Partly Cloudy
2:53 AM 16.0 °F 8.8 °F 14.0 °F 92% 30.21 in 7.0 mi SSE 4.6 mph - N/A   Clear
3:04 AM 15.1 °F 9.4 °F 12.9 °F 91% 30.09 in 0.8 mi SSE 3.5 mph - N/A   Clear
3:10 AM 15.1 °F 9.4 °F 14.0 °F 95% 30.09 in 0.2 mi SSE 3.5 mph - N/A Fog Light Freezing Fog
3:53 AM 15.1 °F - 14.0 °F 95% 30.21 in 0.2 mi Calm Calm - N/A Fog Light Freezing Fog
3:57 AM 16.0 °F - 14.0 °F 92% 30.10 in 1.0 mi Calm Calm - N/A   Mist
4:11 AM 14.0 °F 6.5 °F 10.9 °F 88% 30.10 in 0.5 mi NW 4.6 mph - N/A Fog Light Freezing Fog
4:18 AM 14.0 °F 6.5 °F 12.9 °F 95% 30.10 in 0.2 mi NNW 4.6 mph - N/A Fog Light Freezing Fog
4:26 AM 14.0 °F - 12.0 °F 92% 30.10 in 1.0 mi Calm Calm - N/A   Overcast
4:31 AM 14.0 °F - 12.0 °F 92% 30.09 in 3.0 mi Calm Calm - N/A   Overcast
4:53 AM 14.0 °F - 10.9 °F 88% 30.21 in 8.0 mi Calm Calm - N/A   Mostly Cloudy
5:29 AM 12.9 °F 2.6 °F 10.9 °F 92% 30.09 in 1.8 mi SSE 6.9 mph - N/A   Overcast
5:40 AM 14.0 °F 5.1 °F 12.0 °F 92% 30.09 in 0.5 mi SSE 5.8 mph - N/A Fog Light Freezing Fog
5:53 AM 14.0 °F 6.5 °F 12.0 °F 92% 30.22 in 1.5 mi South 4.6 mph - N/A   Overcast
6:17 AM 16.0 °F 7.4 °F 14.0 °F 92% 30.08 in 0.8 mi SW 5.8 mph - N/A   Mist
6:53 AM 16.0 °F 8.8 °F 14.0 °F 92% 30.23 in 0.2 mi WNW 4.6 mph - N/A Fog Light Freezing Fog
7:53 AM 17.1 °F 11.7 °F 14.0 °F 88% 30.24 in 0.2 mi SSE 3.5 mph - N/A Fog Light Freezing Fog
8:53 AM 18.0 °F - 16.0 °F 92% 30.26 in 0.2 mi Calm Calm - N/A Fog Light Freezing Fog
9:53 AM 19.0 °F 11.1 °F 17.1 °F 92% 30.29 in 0.5 mi SW 5.8 mph - N/A Fog Light Freezing Fog
10:53 AM 21.0 °F 14.6 °F 19.0 °F 92% 30.30 in 1.0 mi West 4.6 mph - N/A   Overcast
11:07 AM 21.0 °F 14.6 °F 19.0 °F 92% 30.16 in 3.0 mi SW 4.6 mph - N/A   Overcast
11:42 AM 24.1 °F 16.0 °F 21.0 °F 88% 30.17 in 7.0 mi SW 6.9 mph - N/A   Scattered Clouds
11:53 AM 25.0 °F 19.3 °F 21.0 °F 85% 30.28 in 10.0 mi SSW 4.6 mph - N/A   Partly Cloudy
12:53 PM 27.0 °F 21.6 °F 19.0 °F 72% 30.27 in 10.0 mi WNW 4.6 mph - N/A   Partly Cloudy
1:53 PM 30.0 °F 26.5 °F 18.0 °F 61% 30.23 in 10.0 mi Variable 3.5 mph - N/A   Partly Cloudy
2:53 PM 35.1 °F 30.1 °F 19.9 °F 54% 30.22 in 10.0 mi Variable 5.8 mph - N/A   Partly Cloudy
3:53 PM 34.0 °F 29.8 °F 19.9 °F 56% 30.24 in 10.0 mi NW 4.6 mph - N/A   Partly Cloudy
4:53 PM 32.0 °F 27.5 °F 19.9 °F 61% 30.28 in 10.0 mi NNW 4.6 mph - N/A   Partly Cloudy
5:53 PM 28.0 °F 21.7 °F 19.0 °F 69% 30.32 in 10.0 mi West 5.8 mph - N/A   Scattered Clouds
6:53 PM 25.0 °F 19.3 °F 18.0 °F 75% 30.33 in 10.0 mi South 4.6 mph - N/A   Scattered Clouds
7:53 PM 21.9 °F 14.5 °F 16.0 °F 78% 30.36 in 10.0 mi SW 5.8 mph - N/A   Clear
8:53 PM 21.0 °F 11.4 °F 17.1 °F 85% 30.37 in 10.0 mi WSW 8.1 mph - N/A   Clear
9:53 PM 19.0 °F - 15.1 °F 85% 30.37 in 8.0 mi Calm Calm - N/A   Clear
10:53 PM 17.1 °F 10.0 °F 14.0 °F 88% 30.40 in 7.0 mi WSW 4.6 mph - N/A   Clear
11:18 PM 15.1 °F 7.7 °F 12.0 °F 88% 30.26 in 8.0 mi SW 4.6 mph - N/A   Partly Cloudy
11:38 PM 15.1 °F 4.2 °F 12.0 °F 88% 30.28 in 1.5 mi SW 8.1 mph - N/A   Partly Cloudy
11:41 PM 15.1 °F 4.2 °F 12.0 °F 88% 30.29 in 0.8 mi SW 8.1 mph - N/A   Mist
11:53 PM 15.1 °F 5.2 °F 12.9 °F 91% 30.44 in 1.0 mi SW 6.9 mph - N/A   Mist